Location: Rathdrum
(47.8130°N, 116.8960°W)
Time: 01:13:33
(UTC-07:00)

Amateur Radio Satellites - All Passes

Search period start: 27 March 2015 00:43
Search period end: 28 March 2015 00:43
Location: Rathdrum, 47.8130°N, 116.8960°W

Satellite Date Start Highest point End Downlink Frequencies (MHz)
Time Altitude Azimuth
YUBILEINY 27 Mar 00:46:50 00:55:32 57° 73° (ENE) 01:04:11 435.215
ITUPSAT 1 27 Mar 00:50:06 00:54:35 40° 68° (ENE) 00:59:06 437.325
KKS-1 27 Mar 01:02:08 01:03:44 12° 57° (ENE) 01:05:32 437.445
SO-50 27 Mar 01:05:01 01:06:54 12° 10° (N) 01:08:50 436.795
RS-15 27 Mar 01:09:54 01:19:46 34° 9° (N) 01:30:04 29.354- 29.394
QB50P1 27 Mar 01:15:57 01:19:07 20° 296° (WNW) 01:22:10 145.935-145.965
DUCHIFAT 1 27 Mar 01:19:35 01:22:36 19° 297° (WNW) 01:25:32 145.980
QB50P2 27 Mar 01:30:16 01:32:48 15° 299° (WNW) 01:35:13 145.880/145.840
SWISSCUBE 27 Mar 01:38:56 01:43:44 70° 258° (WSW) 01:48:34 437.505
PCSat 27 Mar 01:38:58 01:43:31 27° 249° (WSW) 01:47:58 145.827
STARS 27 Mar 01:39:20 01:42:10 18° 61° (ENE) 01:45:07 437.465
BEESAT 27 Mar 01:42:25 01:47:12 70° 258° (WSW) 01:52:01 436.000
ISS 27 Mar 01:53:16 01:56:30 60° 343° (NNW) 01:59:43 145.825
Gurwin Techsat 1B 27 Mar 01:57:21 01:59:23 12° 84° (E) 02:01:42 435.225
Oscar 19 27 Mar 02:02:33 02:07:32 47° 98° (E) 02:12:31 437.125/150
ITUPSAT 1 27 Mar 02:28:26 02:32:36 28° 266° (W) 02:36:44 437.325
KKS-1 27 Mar 02:35:18 02:39:45 85° 75° (ENE) 02:44:12 437.445
YUBILEINY 27 Mar 02:44:11 02:52:05 37° 275° (W) 02:59:47 435.215
SO-50 27 Mar 02:44:58 02:49:06 26° 34° (NE) 02:53:19 436.795
ITAMSAT 1 27 Mar 03:01:54 03:07:00 53° 100° (E) 03:12:04 435.822/435.867
M-CUBED/EXP-1 PRIME 27 Mar 03:08:42 03:09:59 11° 49° (NE) 03:11:27 437.505
STARS 27 Mar 03:13:54 03:18:14 60° 259° (WSW) 03:22:36 437.465
RS-15 27 Mar 03:23:49 03:35:00 60° 40° (NE) 03:46:45 29.354- 29.394
ISS 27 Mar 03:30:08 03:33:14 40° 2° (N) 03:36:19 145.825
Gurwin Techsat 1B 27 Mar 03:34:57 03:40:19 83° 102° (ESE) 03:45:39 435.225
Oscar 19 27 Mar 03:42:20 03:46:42 28° 297° (WNW) 03:50:59 437.125/150
JAS-2 27 Mar 03:50:18 03:56:23 25° 85° (E) 04:02:25 435.910
AO-7 27 Mar 03:50:34 03:57:08 26° 90° (E) 04:03:56 29.400- 29.500
MOZHAYETS 4 27 Mar 03:51:11 03:55:18 34° 67° (ENE) 03:59:30
KKS-1 27 Mar 04:15:31 04:17:06 11° 274° (W) 04:18:28 437.445
AUBIESAT-1 27 Mar 04:18:12 04:21:59 39° 62° (ENE) 04:26:07 437.475
SO-50 27 Mar 04:25:12 04:30:10 72° 235° (SW) 04:35:05 436.795
O/OREOS (USA 219) 27 Mar 04:26:13 04:30:20 34° 107° (ESE) 04:34:32 437.305
HORYU 2 27 Mar 04:35:12 04:39:44 83° 104° (ESE) 04:44:15 437.375
AIST 1 27 Mar 04:38:01 04:42:22 64° 96° (E) 04:46:45
M-CUBED/EXP-1 PRIME 27 Mar 04:40:04 04:44:03 72° 68° (ENE) 04:48:26 437.505
ITAMSAT 1 27 Mar 04:42:00 04:46:14 25° 298° (WNW) 04:50:21 435.822/435.867
GONETS M04 27 Mar 05:04:15 05:10:32 22° 54° (NE) 05:17:07
ISS 27 Mar 05:06:39 05:09:53 83° 22° (NNE) 05:13:08 145.825
Gurwin Techsat 1B 27 Mar 05:16:11 05:19:43 18° 302° (WNW) 05:23:04 435.225
STRAND 1 27 Mar 05:16:34 05:19:44 17° 58° (ENE) 05:23:04 437.568
MOZHAYETS 4 27 Mar 05:28:26 05:32:33 31° 266° (W) 05:36:41
CUBESAT XI-V 27 Mar 05:30:56 05:35:01 30° 66° (ENE) 05:39:09 437.345
JAS-2 27 Mar 05:34:27 05:42:22 81° 286° (WNW) 05:49:46 435.910
RS-15 27 Mar 05:36:32 05:47:32 54° 245° (WSW) 05:58:52 29.354- 29.394
AO-7 27 Mar 05:42:35 05:50:55 79° 292° (WNW) 05:59:12 29.400- 29.500
PRISM 27 Mar 05:49:41 05:53:33 37° 68° (ENE) 05:57:29 437.425
AUBIESAT-1 27 Mar 05:53:43 05:57:02 23° 263° (W) 06:00:29 437.475
O/OREOS (USA 219) 27 Mar 06:05:37 06:09:48 32° 306° (NW) 06:13:57 437.305
SO-50 27 Mar 06:08:20 06:09:58 11° 252° (WSW) 06:11:20 436.795
HORYU 2 27 Mar 06:13:24 06:15:50 14° 301° (WNW) 06:18:06 437.375
M-CUBED/EXP-1 PRIME 27 Mar 06:17:42 06:19:40 13° 269° (W) 06:21:29 437.505
AIST 1 27 Mar 06:17:52 06:20:35 15° 296° (WNW) 06:23:08
Cubesat XI-IV 27 Mar 06:42:35 06:47:35 39° 97° (E) 06:52:34 437.490
CUTE-I 27 Mar 06:43:10 06:48:10 39° 97° (E) 06:53:09 437.470
ISS 27 Mar 06:43:32 06:45:59 20° 220° (SW) 06:48:25 145.825
STRAND 1 27 Mar 06:53:12 06:58:22 83° 254° (WSW) 07:03:34 437.568
CUSAT 1 27 Mar 06:57:53 07:00:06 15° 69° (ENE) 07:02:49 437.405
GONETS M04 27 Mar 07:00:12 07:09:04 82° 80° (E) 07:17:57
CUBESAT XI-V 27 Mar 07:08:02 07:12:24 36° 264° (W) 07:16:44 437.345
JAS-2 27 Mar 07:20:31 07:26:20 23° 307° (NW) 07:31:45 435.910
PRISM 27 Mar 07:25:40 07:29:10 24° 267° (W) 07:32:36 437.425
VERMONT LUNAR 27 Mar 07:27:48 07:30:02 17° 164° (SSE) 07:32:17 437.305
DANDE 27 Mar 07:31:14 07:34:03 22° 72° (ENE) 07:37:32 436.750
AO-7 27 Mar 07:36:26 07:42:39 24° 313° (NW) 07:48:40 29.400- 29.500
PHONESAT 2.4 27 Mar 07:48:03 07:49:58 14° 159° (SSE) 07:51:56 2401.200-2431.200
RS-15 27 Mar 07:53:42 07:57:36 12° 265° (W) 08:00:25 29.354- 29.394
GOMX 1 27 Mar 08:13:14 08:13:45 10° 86° (E) 08:14:32 467.674
HO-68 27 Mar 08:18:31 08:23:22 20° 87° (E) 08:28:30 435.675
Cubesat XI-IV 27 Mar 08:22:51 08:27:39 34° 296° (WNW) 08:32:21 437.490
CUTE-I 27 Mar 08:23:25 08:28:12 34° 296° (WNW) 08:32:54 437.470
SEEDS 27 Mar 08:28:49 08:30:01 11° 85° (E) 08:31:28 437.485
STRAND 1 27 Mar 08:36:27 08:38:30 12° 276° (W) 08:40:16 437.568
CUSAT 1 27 Mar 08:39:15 08:42:59 54° 261° (W) 08:47:56 437.405
BRITE-PL 27 Mar 08:49:23 08:53:14 36° 97° (E) 08:57:12 437.365/2234.400
COMPASS 1 27 Mar 08:53:47 08:56:32 17° 89° (E) 08:59:24 437.405
GONETS M04 27 Mar 08:58:13 09:05:03 25° 280° (W) 09:11:36
VERMONT LUNAR 27 Mar 09:04:24 09:07:10 23° 181° (S) 09:09:56 437.305
DANDE 27 Mar 09:14:04 09:17:19 30° 262° (W) 09:21:24 436.750
CANX-2 27 Mar 09:15:05 09:19:12 42° 98° (E) 09:23:20 2200.000
QB50P2 27 Mar 09:17:39 09:18:15 10° 57° (ENE) 09:19:02 145.880/145.840
PHONESAT 2.4 27 Mar 09:24:44 09:27:40 24° 176° (S) 09:30:37 2401.200-2431.200
UNISAT 6 27 Mar 09:29:02 09:32:22 23° 64° (ENE) 09:35:48 437.425
CUTE 1.7 + AOD 2 27 Mar 09:29:20 09:33:35 54° 100° (E) 09:37:49 437.475
TIGRISAT 27 Mar 09:40:07 09:43:44 28° 66° (ENE) 09:47:26 435.000
POPSAT HIP 1 27 Mar 09:44:30 09:47:21 18° 63° (ENE) 09:50:18 437.405
CINEMA 3 27 Mar 09:46:00 09:49:59 35° 96° (E) 09:54:08 145.822/145.860
GOMX 1 27 Mar 09:48:22 09:52:35 84° 285° (WNW) 09:56:57 467.674
DOVE 4 27 Mar 09:48:34 09:52:49 68° 102° (ESE) 09:57:14 437.250
DX 1 27 Mar 09:49:23 09:50:28 11° 86° (E) 09:51:48 434.975-435.025
NANOSAT C BR1 27 Mar 09:55:38 09:58:55 23° 65° (ENE) 10:02:16 145.865
BUGSAT 1 27 Mar 09:56:48 09:59:33 18° 63° (ENE) 10:02:22 437.445
POLYITAN 1 27 Mar 09:57:32 10:00:54 24° 65° (ENE) 10:04:21 437.675
DELFI C3 27 Mar 09:58:01 10:01:26 25° 93° (E) 10:04:54 145.870
SEEDS 27 Mar 10:02:12 10:06:30 82° 287° (WNW) 10:10:48 437.485
AAUSAT CUBESAT 2 27 Mar 10:03:08 10:07:24 75° 102° (ESE) 10:11:38 437.432
HUMSAT D 27 Mar 10:04:38 10:05:41 11° 86° (E) 10:06:56 437.325/437.525
HO-68 27 Mar 10:04:54 10:12:11 89° 282° (WNW) 10:19:24 435.675
BEESAT 3 27 Mar 10:06:17 10:07:48 12° 111° (ESE) 10:09:32 437.485
ANTELSAT 27 Mar 10:08:28 10:12:37 54° 72° (ENE) 10:16:51 437.575/2403.000
Oscar 11 27 Mar 10:10:31 10:14:43 44° 98° (E) 10:18:54 145.826/435.025
CUBEBUG 2 27 Mar 10:14:01 10:18:06 38° 97° (E) 10:22:19 437.445
UWE-3 27 Mar 10:14:10 10:18:05 32° 96° (E) 10:22:08 435.000/436.395/437.385
FUNcube-1 27 Mar 10:16:24 10:20:07 28° 94° (E) 10:23:57 145.935
VELOX 1 27 Mar 10:20:13 10:20:41 10° 85° (E) 10:21:26 145.980
AISAT 27 Mar 10:22:57 10:24:22 12° 86° (E) 10:26:02 437.250
ZACube-1 27 Mar 10:28:09 10:32:11 36° 97° (E) 10:36:18 437.345
BRITE-PL 27 Mar 10:28:19 10:31:41 24° 294° (WNW) 10:35:03 437.365/2234.400
COMPASS 1 27 Mar 10:28:26 10:32:36 53° 288° (WNW) 10:36:44 437.405
QB50P1 27 Mar 10:35:24 10:39:31 55° 72° (ENE) 10:43:41 145.935-145.965
DUCHIFAT 1 27 Mar 10:38:39 10:42:47 58° 73° (ENE) 10:46:56 145.980
VERMONT LUNAR 27 Mar 10:42:09 10:44:17 16° 197° (SSW) 10:46:25 437.305
ESTCUBE 1 27 Mar 10:45:11 10:45:45 10° 84° (E) 10:46:35 437.505/2401.250
QB50P2 27 Mar 10:49:16 10:53:29 78° 75° (ENE) 10:57:44 145.880/145.840
CANX-2 27 Mar 10:51:31 10:54:56 23° 295° (WNW) 10:58:16 2200.000
BEESAT 2 27 Mar 11:01:42 11:05:27 35° 119° (ESE) 11:09:18 435.950
PHONESAT 2.4 27 Mar 11:02:45 11:05:28 20° 192° (SSW) 11:08:10 2401.200-2431.200
UNISAT 6 27 Mar 11:04:55 11:08:58 41° 262° (W) 11:13:04 437.425
CUTE 1.7 + AOD 2 27 Mar 11:06:08 11:09:11 18° 297° (WNW) 11:12:06 437.475
50 SAT 27 Mar 11:15:54 11:19:41 39° 97° (E) 11:23:30 437.505
UKube-1 27 Mar 11:16:00 11:20:22 79° 105° (ESE) 11:24:42 .
TIGRISAT 27 Mar 11:16:35 11:20:27 32° 265° (W) 11:24:19 435.000
POPSAT HIP 1 27 Mar 11:18:46 11:22:55 53° 260° (W) 11:27:03 437.405
DX 1 27 Mar 11:23:03 11:27:26 85° 285° (WNW) 11:31:46 434.975-435.025
CINEMA 3 27 Mar 11:23:28 11:27:08 27° 293° (WNW) 11:30:51 145.822/145.860
DOVE 4 27 Mar 11:27:45 11:30:13 15° 298° (WNW) 11:32:36 437.250
GOMX 1 27 Mar 11:29:12 11:30:10 11° 301° (WNW) 11:30:57 467.674
NANOSAT C BR1 27 Mar 11:30:36 11:34:36 40° 262° (W) 11:38:35 145.865
BUGSAT 1 27 Mar 11:30:37 11:34:43 53° 260° (W) 11:38:47 437.445
POLYITAN 1 27 Mar 11:32:45 11:36:42 37° 263° (W) 11:40:38 437.675
DELFI C3 27 Mar 11:32:58 11:36:42 33° 291° (WNW) 11:40:22 145.870
HUMSAT D 27 Mar 11:37:51 11:42:06 83° 285° (WNW) 11:46:23 437.325/437.525
AAUSAT CUBESAT 2 27 Mar 11:40:17 11:42:32 14° 300° (WNW) 11:44:38 437.432
SEEDS 27 Mar 11:40:25 11:41:40 11° 302° (WNW) 11:42:44 437.485
BEESAT 3 27 Mar 11:41:10 11:45:18 86° 307° (NW) 11:49:29 437.485
Oscar 19 27 Mar 11:46:15 11:49:13 16° 57° (ENE) 11:52:21 437.125/150
ANTELSAT 27 Mar 11:47:00 11:49:50 17° 271° (W) 11:52:35 437.575/2403.000
Oscar 11 27 Mar 11:47:14 11:50:41 22° 296° (WNW) 11:54:02 145.826/435.025
UWE-3 27 Mar 11:50:49 11:54:36 29° 293° (WNW) 11:58:26 435.000/436.395/437.385
CUBEBUG 2 27 Mar 11:51:05 11:54:41 25° 294° (WNW) 11:58:18 437.445
FUNcube-1 27 Mar 11:52:36 11:56:31 34° 292° (WNW) 12:00:29 145.935
VELOX 1 27 Mar 11:53:36 11:58:03 89° 103° (ESE) 12:02:27 145.980
HO-68 27 Mar 11:53:39 11:59:06 23° 308° (NW) 12:04:22 435.675
AISAT 27 Mar 11:57:14 12:01:40 82° 288° (WNW) 12:06:05 437.250
AIST 2 27 Mar 11:59:45 12:03:52 49° 122° (ESE) 12:08:03 435.215
CUBEBUG 1 27 Mar 12:00:37 12:04:52 51° 100° (E) 12:09:05 437.445
YUBILEINY 27 Mar 12:02:36 12:05:11 12° 70° (ENE) 12:08:24 435.215
ZACube-1 27 Mar 12:04:48 12:08:27 26° 293° (WNW) 12:12:06 437.345
QB50P1 27 Mar 12:13:05 12:15:49 16° 271° (W) 12:18:23 145.935-145.965
DUCHIFAT 1 27 Mar 12:16:30 12:19:04 15° 271° (W) 12:21:29 145.980
TISAT 1 27 Mar 12:17:41 12:20:37 19° 91° (E) 12:23:39 437.305
ESTCUBE 1 27 Mar 12:18:53 12:23:27 86° 107° (ESE) 12:27:57 437.505/2401.250
SPROUT 27 Mar 12:19:13 12:22:38 23° 92° (E) 12:26:07 437.525
QB50P2 27 Mar 12:28:31 12:30:02 11° 274° (W) 12:31:21 145.880/145.840
BEESAT 2 27 Mar 12:39:49 12:43:38 33° 318° (NW) 12:47:28 435.950
ITAMSAT 1 27 Mar 12:46:01 12:49:33 19° 59° (ENE) 12:53:14 435.822/435.867
50 SAT 27 Mar 12:51:18 12:54:26 22° 295° (WNW) 12:57:30 437.505
UKube-1 27 Mar 12:53:40 12:55:59 14° 301° (WNW) 12:58:09 .
O/OREOS (USA 219) 27 Mar 12:53:50 12:57:03 19° 46° (NE) 13:00:20 437.305
DX 1 27 Mar 13:01:26 13:03:03 12° 303° (WNW) 13:04:29 434.975-435.025
AO-7 27 Mar 13:05:38 13:09:50 16° 38° (NE) 13:14:19 29.400- 29.500
HUMSAT D 27 Mar 13:16:03 13:17:15 11° 302° (WNW) 13:18:16 437.325/437.525
Gurwin Techsat 1B 27 Mar 13:20:47 13:25:14 29° 63° (ENE) 13:29:48 435.225
BEESAT 3 27 Mar 13:21:06 13:24:00 18° 329° (NNW) 13:26:50 437.485
Oscar 19 27 Mar 13:22:49 13:27:57 87° 253° (WSW) 13:33:08 437.125/150
VELOX 1 27 Mar 13:31:58 13:34:01 13° 302° (WNW) 13:35:54 145.980
AISAT 27 Mar 13:36:01 13:37:38 12° 303° (WNW) 13:39:03 437.250
SWISSCUBE 27 Mar 13:36:27 13:40:16 24° 92° (E) 13:44:10 437.505
CUBEBUG 1 27 Mar 13:37:46 13:40:56 20° 297° (WNW) 13:43:59 437.445
AIST 2 27 Mar 13:38:57 13:42:41 28° 322° (NW) 13:46:25 435.215
BEESAT 27 Mar 13:39:50 13:43:38 24° 92° (E) 13:47:32 436.000
YUBILEINY 27 Mar 13:51:41 14:00:12 58° 91° (E) 14:08:49 435.215
TISAT 1 27 Mar 13:52:40 13:56:43 46° 289° (WNW) 14:00:43 437.305
SPROUT 27 Mar 13:54:53 13:58:53 38° 291° (WNW) 14:02:51 437.525
ESTCUBE 1 27 Mar 13:57:24 13:59:44 14° 302° (WNW) 14:01:53 437.505/2401.250
HORYU 2 27 Mar 14:02:27 14:05:04 16° 60° (ENE) 14:07:50 437.375
JAS-2 27 Mar 14:07:17 14:11:51 19° 49° (NE) 14:16:54 435.910
BEESAT 2 27 Mar 14:22:01 14:23:02 11° 341° (NNW) 14:23:59 435.950
ITAMSAT 1 27 Mar 14:23:19 14:28:33 74° 256° (WSW) 14:33:49 435.822/435.867
ITUPSAT 1 27 Mar 14:24:43 14:29:30 59° 101° (E) 14:34:14 437.325
KKS-1 27 Mar 14:24:48 14:26:45 13° 87° (E) 14:28:54 437.445
O/OREOS (USA 219) 27 Mar 14:32:27 14:37:01 70° 247° (WSW) 14:41:31 437.305
PCSat 27 Mar 14:41:12 14:45:23 24° 109° (ESE) 14:49:42 145.827
AIST 1 27 Mar 14:42:14 14:45:42 23° 68° (ENE) 14:49:12
AO-7 27 Mar 14:53:00 15:00:51 50° 60° (ENE) 15:08:46 29.400- 29.500
Gurwin Techsat 1B 27 Mar 14:59:56 15:05:03 47° 262° (W) 15:10:11 435.225
STARS 27 Mar 15:01:02 15:04:11 19° 91° (E) 15:07:25 437.465
Oscar 19 27 Mar 15:05:52 15:08:11 13° 275° (W) 15:10:15 437.125/150
SWISSCUBE 27 Mar 15:13:47 15:18:24 46° 291° (WNW) 15:22:57 437.505
BEESAT 27 Mar 15:17:09 15:21:45 46° 291° (WNW) 15:26:19 436.000
AIST 2 27 Mar 15:22:38 15:22:43 10° 344° (NNW) 15:22:44 435.215
HORYU 2 27 Mar 15:36:50 15:41:15 70° 257° (WSW) 15:45:43 437.375
JAS-2 27 Mar 15:48:43 15:55:35 70° 71° (ENE) 16:03:14 435.910
YUBILEINY 27 Mar 15:49:24 15:57:31 38° 294° (WNW) 16:05:34 435.215
KKS-1 27 Mar 15:59:34 16:04:01 76° 286° (WNW) 16:08:27 437.445
ITUPSAT 1 27 Mar 16:03:27 16:07:01 21° 299° (WNW) 16:10:28 437.325
ITAMSAT 1 27 Mar 16:07:51 16:09:06 11° 277° (W) 16:10:02 435.822/435.867
AIST 1 27 Mar 16:19:31 16:23:32 37° 268° (W) 16:27:28
PCSat 27 Mar 16:23:02 16:28:25 63° 308° (NW) 16:33:51 145.827
Cubesat XI-IV 27 Mar 16:30:47 16:33:56 16° 56° (NE) 16:37:15 437.490
CUTE-I 27 Mar 16:31:16 16:34:23 16° 56° (NE) 16:37:41 437.470
STARS 27 Mar 16:36:41 16:40:57 49° 290° (WNW) 16:45:12 437.465
AO-7 27 Mar 16:45:53 16:53:48 46° 261° (W) 17:01:41 29.400- 29.500
MOZHAYETS 4 27 Mar 17:19:29 17:24:02 49° 99° (E) 17:28:33
AUBIESAT-1 27 Mar 17:30:59 17:34:40 22° 96° (E) 17:38:27 437.475
JAS-2 27 Mar 17:35:29 17:41:23 28° 273° (W) 17:47:37 435.910
KKS-1 27 Mar 17:38:43 17:39:58 11° 304° (WNW) 17:41:01 437.445
BEESAT 2 27 Mar 17:40:32 17:43:03 15° 28° (NNE) 17:45:38 435.950
M-CUBED/EXP-1 PRIME 27 Mar 17:53:06 17:57:38 38° 102° (ESE) 18:02:09 437.505
RS-15 27 Mar 17:56:43 18:03:19 20° 100° (E) 18:10:36 29.354- 29.394
Cubesat XI-IV 27 Mar 18:07:58 18:13:22 88° 78° (ENE) 18:18:48 437.490
CUTE-I 27 Mar 18:08:25 18:13:47 88° 79° (E) 18:19:12 437.470
PCSat 27 Mar 18:09:16 18:12:59 18° 331° (NNW) 18:16:36 145.827
GONETS M04 27 Mar 18:12:37 18:18:00 19° 76° (ENE) 18:23:51
BEESAT 3 27 Mar 18:19:37 18:23:12 27° 39° (NE) 18:26:46 437.485
AIST 2 27 Mar 18:40:28 18:43:36 19° 32° (NNE) 18:46:44 435.215
SO-50 27 Mar 18:44:34 18:47:27 17° 111° (ESE) 18:50:34 436.795
HO-68 27 Mar 18:51:19 18:56:43 24° 53° (NE) 19:02:17 435.675
MOZHAYETS 4 27 Mar 18:57:19 19:00:59 23° 297° (WNW) 19:04:33
STRAND 1 27 Mar 19:00:48 19:05:01 26° 92° (E) 19:09:18 437.568
CUBESAT XI-V 27 Mar 19:00:58 19:05:26 45° 97° (E) 19:09:52 437.345
PRISM 27 Mar 19:04:08 19:08:02 36° 97° (E) 19:11:55 437.425
AUBIESAT-1 27 Mar 19:05:04 19:09:48 56° 294° (WNW) 19:14:30 437.475
BEESAT 2 27 Mar 19:17:50 19:22:00 68° 50° (NE) 19:26:06 435.950
DOVE 4 27 Mar 19:23:06 19:24:55 13° 60° (ENE) 19:26:52 437.250
GOMX 1 27 Mar 19:23:42 19:26:43 19° 64° (ENE) 19:29:46 467.674
SEEDS 27 Mar 19:24:21 19:26:25 14° 60° (ENE) 19:28:38 437.485
AAUSAT CUBESAT 2 27 Mar 19:26:00 19:26:26 10° 58° (ENE) 19:27:04 437.432
M-CUBED/EXP-1 PRIME 27 Mar 19:28:04 19:32:26 33° 299° (WNW) 19:36:44 437.505
COMPASS 1 27 Mar 19:48:45 19:51:41 19° 64° (ENE) 19:54:44 437.405
Cubesat XI-IV 27 Mar 19:51:19 19:54:19 14° 274° (W) 19:57:03 437.490
CUTE-I 27 Mar 19:51:43 19:54:43 14° 274° (W) 19:57:27 437.470
BEESAT 3 27 Mar 19:57:28 20:01:27 45° 238° (WSW) 20:05:20 437.485
RS-15 27 Mar 20:03:04 20:13:52 74° 122° (ESE) 20:24:58 29.354- 29.394
BRITE-PL 27 Mar 20:03:27 20:08:08 65° 74° (ENE) 20:12:29 437.365/2234.400
GONETS M04 27 Mar 20:04:56 20:13:38 83° 97° (E) 20:22:27
CANX-2 27 Mar 20:11:20 20:15:24 47° 71° (ENE) 20:19:31 2200.000
AIST 2 27 Mar 20:18:28 20:22:47 87° 234° (SW) 20:27:00 435.215
SO-50 27 Mar 20:22:47 20:27:27 77° 310° (NW) 20:32:19 436.795
CUTE 1.7 + AOD 2 27 Mar 20:25:27 20:29:37 60° 73° (ENE) 20:33:51 437.475
HO-68 27 Mar 20:36:31 20:43:43 86° 253° (WSW) 20:50:58 435.675
CUBESAT XI-V 27 Mar 20:38:54 20:42:40 24° 296° (WNW) 20:46:20 437.345
STRAND 1 27 Mar 20:39:35 20:44:30 47° 291° (WNW) 20:49:21 437.568
PRISM 27 Mar 20:39:56 20:43:24 25° 295° (WNW) 20:46:45 437.425
UKube-1 27 Mar 20:40:39 20:42:49 14° 59° (ENE) 20:45:08 .
AUBIESAT-1 27 Mar 20:42:29 20:43:44 11° 312° (NW) 20:44:47 437.475
DX 1 27 Mar 20:47:38 20:50:23 17° 61° (ENE) 20:53:16 434.975-435.025
DELFI C3 27 Mar 20:49:18 20:52:40 26° 67° (ENE) 20:56:07 145.870
DANDE 27 Mar 20:50:27 20:52:05 14° 95° (E) 20:53:42 436.750
CINEMA 3 27 Mar 20:51:27 20:55:28 47° 71° (ENE) 20:59:29 145.822/145.860
BEESAT 2 27 Mar 20:57:08 20:59:42 16° 248° (WSW) 21:02:08 435.950
AAUSAT CUBESAT 2 27 Mar 20:57:13 21:01:23 79° 77° (ENE) 21:05:37 437.432
SEEDS 27 Mar 20:57:30 21:01:43 76° 259° (W) 21:05:59 437.485
DOVE 4 27 Mar 20:57:52 21:02:14 80° 257° (WSW) 21:06:27 437.250
HUMSAT D 27 Mar 21:00:04 21:01:54 13° 60° (ENE) 21:03:56 437.325/437.525
GOMX 1 27 Mar 21:00:13 21:04:37 52° 260° (W) 21:08:49 467.674
Oscar 11 27 Mar 21:08:31 21:12:41 52° 72° (ENE) 21:16:56 145.826/435.025
UWE-3 27 Mar 21:15:00 21:18:50 38° 70° (ENE) 21:22:44 435.000/436.395/437.385
FUNcube-1 27 Mar 21:15:51 21:19:32 32° 68° (ENE) 21:23:16 145.935
CUBEBUG 2 27 Mar 21:15:55 21:19:54 47° 71° (ENE) 21:23:56 437.445
VELOX 1 27 Mar 21:20:07 21:22:49 16° 61° (ENE) 21:25:39 145.980
COMPASS 1 27 Mar 21:23:02 21:27:05 49° 261° (W) 21:31:12 437.405
AISAT 27 Mar 21:23:41 21:26:37 18° 61° (ENE) 21:29:41 437.250
ZACube-1 27 Mar 21:27:43 21:31:39 42° 70° (ENE) 21:35:37 437.345
PCSat 27 Mar 21:41:47 21:44:40 14° 23° (NNE) 21:47:39 145.827
BRITE-PL 27 Mar 21:44:17 21:47:07 15° 271° (W) 21:49:41 437.365/2234.400
ESTCUBE 1 27 Mar 21:47:05 21:49:53 17° 60° (ENE) 21:52:50 437.505/2401.250
CANX-2 27 Mar 21:48:32 21:51:38 19° 270° (W) 21:54:39 2200.000
CUSAT 1 27 Mar 21:54:07 21:56:50 41° 284° (WNW) 21:59:21 437.405
AIST 2 27 Mar 21:59:20 22:00:45 11° 250° (WSW) 22:01:56 435.215
CUTE 1.7 + AOD 2 27 Mar 22:03:27 22:06:01 15° 272° (W) 22:08:26 437.475
GONETS M04 27 Mar 22:04:35 22:11:43 26° 302° (WNW) 22:18:42
SO-50 27 Mar 22:05:16 22:08:50 20° 332° (NNW) 22:12:25 436.795
50 SAT 27 Mar 22:05:25 22:09:02 37° 70° (ENE) 22:12:42 437.505
UKube-1 27 Mar 22:14:05 22:18:26 79° 256° (WSW) 22:22:49 .
RS-15 27 Mar 22:16:43 22:27:11 47° 330° (NNW) 22:37:55 29.354- 29.394
DX 1 27 Mar 22:21:54 22:26:14 63° 258° (WSW) 22:30:35 434.975-435.025
DELFI C3 27 Mar 22:24:04 22:27:46 32° 264° (W) 22:31:28 145.870
HO-68 27 Mar 22:27:44 22:32:37 18° 274° (W) 22:37:10 435.675
CINEMA 3 27 Mar 22:30:04 22:33:01 18° 270° (W) 22:35:49 145.822/145.860
DANDE 27 Mar 22:33:01 22:35:17 19° 288° (WNW) 22:37:20 436.750
HUMSAT D 27 Mar 22:33:05 22:37:10 75° 258° (WSW) 22:41:19 437.325/437.525
QB50P2 27 Mar 22:34:35 22:34:41 10° 85° (E) 22:35:03 145.880/145.840
AAUSAT CUBESAT 2 27 Mar 22:36:17 22:37:41 11° 275° (W) 22:38:52 437.432
Oscar 11 27 Mar 22:46:14 22:49:15 18° 271° (W) 22:52:08 145.826/435.025
UWE-3 27 Mar 22:52:18 22:55:35 22° 268° (W) 22:58:46 435.000/436.395/437.385
FUNcube-1 27 Mar 22:52:25 22:55:57 26° 266° (W) 22:59:27 145.935
UNISAT 6 27 Mar 22:53:06 22:57:10 31° 95° (E) 23:01:18 437.425
CUBEBUG 2 27 Mar 22:54:02 22:56:57 18° 270° (W) 22:59:45 437.445
VELOX 1 27 Mar 22:54:31 22:58:57 68° 258° (WSW) 23:03:25 145.980
AISAT 27 Mar 22:58:27 23:02:51 60° 259° (W) 23:07:15 437.250
CUBEBUG 1 27 Mar 22:59:54 23:04:17 67° 73° (ENE) 23:08:41 437.445
POPSAT HIP 1 27 Mar 23:01:19 23:04:21 19° 91° (E) 23:07:28 437.405
TIGRISAT 27 Mar 23:04:06 23:08:20 39° 97° (E) 23:12:41 435.000
ZACube-1 27 Mar 23:05:11 23:08:17 20° 269° (W) 23:11:18 437.345
BUGSAT 1 27 Mar 23:10:31 23:13:06 17° 90° (E) 23:15:46 437.445
NANOSAT C BR1 27 Mar 23:12:24 23:15:52 25° 93° (E) 23:19:23 145.865
TISAT 1 27 Mar 23:13:21 23:16:39 23° 65° (ENE) 23:20:02 437.305
POLYITAN 1 27 Mar 23:14:53 23:18:29 27° 94° (E) 23:22:08 437.675
SPROUT 27 Mar 23:16:45 23:20:25 28° 67° (ENE) 23:24:08 437.525
ESTCUBE 1 27 Mar 23:21:45 23:26:18 69° 258° (WSW) 23:30:52 437.505/2401.250
PCSat 27 Mar 23:24:23 23:29:34 44° 47° (NE) 23:34:46 145.827
ISS 27 Mar 23:24:36 23:27:01 19° 140° (SE) 23:29:28 145.825
ANTELSAT 27 Mar 23:33:17 23:37:51 77° 103° (ESE) 23:42:29 437.575/2403.000
50 SAT 27 Mar 23:41:07 23:44:08 20° 268° (W) 23:47:05 437.505
SO-50 27 Mar 23:49:49 23:51:15 11° 356° (N) 23:52:40 436.795
QB50P1 27 Mar 23:52:53 23:57:06 65° 102° (ESE) 00:01:18 145.935-145.965
DUCHIFAT 1 27 Mar 23:55:46 23:59:59 68° 102° (ESE) 00:04:12 145.980
YUBILEINY 27 Mar 23:57:34 00:05:25 35° 64° (ENE) 00:13:21 435.215
ITUPSAT 1 27 Mar 23:59:36 00:02:20 16° 58° (ENE) 00:05:14 437.325
QB50P2 28 Mar 00:07:04 00:11:19 88° 292° (WNW) 00:15:35 145.880/145.840
UNISAT 6 28 Mar 00:29:53 00:33:57 33° 293° (WNW) 00:38:02 437.425
